Location: Melita
(38.4566°N, 122.6369°W)
Time: 09:42:47
(UTC+00:00)

Cosmos 2366 rocket - Pass Details

Date: 24 January 2020
Orbit: 956 x 996 km, 82.9° (Epoch: 18 February)

Event Time Altitude Azimuth Distance (km) Brightness Sun altitude
Rises 13:39:55 0° 354° (N) 3,720 6.9 -20.0°
Reaches altitude 10° 13:42:28 10° 357° (N) 2,769 6.2 -19.5°
Maximum altitude 13:48:50 75° 83° (E) 1,033 4.2 -18.3°
Drops below altitude 10° 13:55:09 10° 168° (SSE) 2,748 6.6 -17.0°
Sets 13:57:40 0° 170° (S) 3,690 7.3 -16.6°
